Regional Weather Roundup
Issued by NWS

Home | Current Version | Previous Version | Text Only | Print | Product List | Glossary Off
Versions: 1 2 3 4 5 6 7 8 9 10 11 12 13 14 15 16 17 18 19 20 21 22 23 24 25 26 27 28 29 30 31 32 33 34 35 36 37 38 39 40 41 42 43 44 45 46 47 48 49 50

000
ASUS43 KLMK 291902
RWRKY
KENTUCKY REGIONAL WEATHER ROUNDUP
NATIONAL WEATHER SERVICE LOUISVILLE KY
300 PM EDT WED OCT 29 2014

NOTE "FAIR" INDICATES FEW OR NO CLOUDS BELOW 12,000 FEET
WITH NO SIGNIFICANT WEATHER AND/OR OBSTRUCTIONS TO VISIBILITY.

KYZ001>023-026-027-061>063-070>075-292000-
WESTERN AND SOUTH CENTRAL KENTUCKY

CITY           SKY/WX    TMP DP  RH WIND       PRES   REMARKS
PADUCAH        SUNNY     65  39  38 NW9       30.13F
HENDERSON      MOSUNNY   63  36  36 NW13      30.11F
OWENSBORO      SUNNY     63  37  37 NW14G21   30.11F
HOPKINSVILLE   MOSUNNY   64  42  45 W13       30.12F
BOWLING GREEN  MOSUNNY   64  36  35 W16       30.11F
GLASGOW        NOT AVBL
$$

KYZ024-025-028>034-038-045-046-053-292000-
NORTH CENTRAL KENTUCKY

CITY           SKY/WX    TMP DP  RH WIND       PRES   REMARKS
LOUISVILLE/SDF MOSUNNY   64  34  32 W16G22    30.07F
LOUISVILLE/LOU SUNNY     63  33  32 W14       30.07F
FORT KNOX      SUNNY     62  34  34 W17G25    30.07S
$$

KYZ035>037-039>044-047>052-055>060-089>105-292000-
NORTHEAST KENTUCKY

CITY           SKY/WX    TMP DP  RH WIND       PRES   REMARKS
LEXINGTON      MOSUNNY   64  37  36 W16G25    30.06F
COVINGTON      MOSUNNY   59  35  40 W17G24    30.04F
FRANKFORT      SUNNY     62  33  33 W14G24    30.05F
$$

KYZ054-064>069-076>088-106>120-292000-
SOUTHEAST KENTUCKY

CITY           SKY/WX    TMP DP  RH WIND       PRES   REMARKS
JACKSON        SUNNY     62  35  36 NW10      30.05F
LONDON         MOSUNNY   62  38  40 W8G17     30.08F
SOMERSET       SUNNY     61  36  39 W9        30.10F
MIDDLESBORO    NOT AVBL
MONTICELLO     CLEAR     65  40  39 NW8       30.11F
$$




USA.gov is the U.S. government's official web portal to all federal, state and local government web resources and services.